Погода в Арлане

Россия / Республика Башкортостан     55°58′27″N   54°14′51″E
темп.,
°C
ветер,
м/с
пор.,
м/с
влажн.,
%
обл.,
%
осадки,
мм/ч
давл.,
гПа
погр.,
м
16 сентября, чт
чт1623:00+9з7117039 0.1 10031057
02:00+7зсз51075100 0.0 1004777
05:00+7з4972100 0.1 1004804
08:00+7з5877100 0.1 1004961
11:00+6зсз6891100 0.7 10051003
14:00+7зсз697194 0.4 10061269
17:00+7зсз7968100 0.4 10071184
20:00+7зсз61165100 0.0 10071184
17 сентября, пт
пт1723:00+6сз71085100 0.1 10071206
02:00+6зсз61084100 0.3 1007880
05:00+6сз61088100 0.3 1008622
08:00+6сз61088100 0.1 1009629
11:00+7сз6883100 0.1 1010669
14:00+8зсз6779100 0.1 1011855
17:00+6сз6884100 0.1 1012709
20:00+6зсз4688100 0.0 1013493
18 сентября, сб
сб1823:00+5сз468292 0.0 1013620
02:00+5зсз468597 0.1 1013413
05:00+5зсз4687100 0.1 1013675
08:00+5сз4694100 0.4 1013772
11:00+5ссз5786100 1.6 1014883
14:00+7ссз576296 0.1 10151534
17:00+7сз6862100 0.3 10161370
20:00+6сз51070100 0.2 1017520
19 сентября, вс
вс1923:00+4сз598165 0.3 1018417
02:00+2сз510895 0.0 1018357
05:000сз5119434 0.0 1020411
08:00+1сз5987100 0.0 1020686
11:00+4сз5765100 0.0 10211129
14:00+7сз685284 0.0 10221463
17:00+7с685370 0.0 10231389
20:00+3с496619 0.0 1025363
20 сентября, пн
пн2023:00+2сз357168 0.0 1026137
02:00+4ссз345998 0.0 1026157
05:00+4ссз2359100 0.0 1028107
08:00+4с1360100 0.0 1029215
11:00+6св2350100 0.0 10291213
14:00+8ссв2245100 0.0 10301289
17:00+9св2244100 0.0 10291290
20:00+6всв2256100 0.0 103034